Menominee, MI

8:46 AM CDT on October 01, 2016 (GMT -0500)
Menominee-Marinette Twin County

Weather History for KMNM - April, 2013

Change the Weather History Date:

Monday, April 22, 2013

  Actual Average Record
Temperature  
Mean Temperature 40 °F -  
Max Temperature 44 °F 58 °F 82 °F (1980)
Min Temperature 37 °F 36 °F 21 °F (1986)
Degree Days  
Heating Degree Days 26    
Moisture  
Dew Point 35 °F    
Average Humidity 81    
Maximum Humidity 100    
Minimum Humidity 57    
Precipitation  
Precipitation 0.07 in - - ()
Sea Level Pressure  
Sea Level Pressure 30.19 in    
Wind  
Wind Speed 9 mph (SSE)    
Max Wind Speed 17 mph    
Max Gust Speed 23 mph    
Visibility 8 miles    
Events      
Averages and records for this station are not official NWS values.
T = Trace of Precipitation, MM = Missing Value Source: NWS Daily Summary

Daily Weather History Graph

Daily Weather History Graph

Search for Another Location

Airport or City:

Trip Planner

Search our weather history database for the weather conditions in past years. The results will help you decide how hot, cold, wet, or windy it might be!

Date:

Astronomy

Apr. 22, 2013 Rise Set
Actual Time 5:53 AM CDT 7:45 PM CDT
Civil Twilight 5:21 AM CDT 8:17 PM CDT
Nautical Twilight 4:43 AM CDT 8:55 PM CDT
Astronomical Twilight 4:01 AM CDT 9:37 PM CDT
Moon 4:26 PM CDT (4/22) 3:57 AM CDT (4/22)
Length of Visible Light 14h 55m
Length of Day
13h 52m
Waxing Gibbous, 88% of the Moon is Illuminated
Apr 22
Waxing Gibbous
Apr 25
Full
May 2
Last Quarter
May 9
New
May 17
First Quarter

Hourly Weather History & Observations

Time (CDT) Temp. Windchill Dew Point Humidity Pressure Visibility Wind Dir Wind Speed Gust Speed Precip Events Conditions
12:15 AM 41.0 °F 35.8 °F 28.4 °F 61% 30.25 in 10.0 mi SSW 8.1 mph 19.6 mph N/A   Overcast
12:35 AM 42.8 °F 37.0 °F 28.4 °F 57% 30.25 in 10.0 mi SW 10.4 mph - N/A   Overcast
12:55 AM 41.0 °F 34.7 °F 28.4 °F 61% 30.25 in 10.0 mi South 10.4 mph - N/A   Overcast
1:15 AM 42.8 °F 36.6 °F 28.4 °F 57% 30.23 in 10.0 mi South 11.5 mph 18.4 mph N/A   Overcast
1:35 AM 42.8 °F 36.2 °F 28.4 °F 57% 30.25 in 10.0 mi SW 12.7 mph 19.6 mph N/A   Overcast
2:15 AM 42.8 °F 34.8 °F 28.4 °F 57% 30.23 in 10.0 mi SSW 17.3 mph 20.7 mph N/A   Mostly Cloudy
2:35 AM 42.8 °F 36.6 °F 28.4 °F 57% 30.23 in 10.0 mi SSW 11.5 mph 23.0 mph N/A   Overcast
2:55 AM 42.8 °F 36.6 °F 30.2 °F 61% 30.23 in 10.0 mi SSW 11.5 mph - N/A   Mostly Cloudy
3:15 AM 42.8 °F 36.6 °F 30.2 °F 61% 30.23 in 10.0 mi SSW 11.5 mph - N/A   Overcast
3:35 AM 41.0 °F 33.9 °F 30.2 °F 65% 30.21 in 10.0 mi South 12.7 mph - N/A   Overcast
3:55 AM 41.0 °F 34.7 °F 30.2 °F 65% 30.22 in 10.0 mi SW 10.4 mph 16.1 mph N/A   Overcast
4:15 AM 42.8 °F 37.5 °F 30.2 °F 61% 30.23 in 10.0 mi SW 9.2 mph - N/A   Overcast
4:35 AM 41.0 °F 35.2 °F 30.2 °F 65% 30.23 in 10.0 mi SSW 9.2 mph - N/A   Overcast
4:55 AM 41.0 °F 35.8 °F 30.2 °F 65% 30.23 in 10.0 mi SSW 8.1 mph - N/A   Overcast
5:15 AM 41.0 °F 33.5 °F 30.2 °F 65% 30.22 in 10.0 mi South 13.8 mph 19.6 mph N/A   Overcast
5:35 AM 42.8 °F 37.0 °F 30.2 °F 61% 30.22 in 10.0 mi SSW 10.4 mph - N/A   Overcast
5:55 AM 42.8 °F 36.6 °F 32.0 °F 66% 30.23 in 10.0 mi SSW 11.5 mph - N/A   Overcast
6:15 AM 41.0 °F 34.7 °F 33.8 °F 76% 30.23 in 10.0 mi SSW 10.4 mph - 0.01 in   Overcast
6:35 AM 41.0 °F 35.8 °F 33.8 °F 76% 30.23 in 10.0 mi SSW 8.1 mph - 0.01 in   Overcast
6:55 AM 41.0 °F 35.2 °F 33.8 °F 76% 30.23 in 10.0 mi SSW 9.2 mph - 0.01 in   Overcast
7:15 AM 42.8 °F 38.0 °F 33.8 °F 70% 30.23 in 10.0 mi SSW 8.1 mph - N/A   Overcast
7:35 AM 42.8 °F 38.0 °F 33.8 °F 70% 30.23 in 10.0 mi South 8.1 mph - N/A   Overcast
7:55 AM 42.8 °F 37.0 °F 33.8 °F 70% 30.23 in 10.0 mi South 10.4 mph 17.3 mph N/A   Overcast
8:15 AM 42.8 °F 36.6 °F 35.6 °F 76% 30.23 in 10.0 mi South 11.5 mph 17.3 mph N/A   Overcast
8:35 AM 41.0 °F 35.8 °F 37.4 °F 87% 30.23 in 10.0 mi SSW 8.1 mph - 0.01 in   Overcast
8:55 AM 41.0 °F 36.4 °F 37.4 °F 87% 30.23 in 8.0 mi South 6.9 mph - 0.01 in   Overcast
9:15 AM 39.2 °F 33.6 °F 37.4 °F 93% 30.23 in 10.0 mi South 8.1 mph - N/A   Overcast
9:35 AM 41.0 °F 34.7 °F 37.4 °F 87% 30.23 in 9.0 mi South 10.4 mph - N/A   Overcast
9:55 AM 42.8 °F 37.5 °F 37.4 °F 81% 30.23 in 8.0 mi South 9.2 mph - 0.01 in   Overcast
10:15 AM 42.8 °F 38.0 °F 37.4 °F 81% 30.23 in 6.0 mi South 8.1 mph - N/A   Overcast
10:35 AM 41.0 °F 36.4 °F 37.4 °F 87% 30.23 in 8.0 mi South 6.9 mph - 0.01 in   Overcast
10:55 AM 41.0 °F 37.1 °F 37.4 °F 87% 30.23 in 9.0 mi South 5.8 mph - 0.01 in   Overcast
11:15 AM 41.0 °F 36.4 °F 37.4 °F 87% 30.23 in 8.0 mi South 6.9 mph - N/A   Overcast
11:35 AM 42.8 °F 38.0 °F 39.2 °F 87% 30.23 in 9.0 mi South 8.1 mph - N/A   Overcast
11:55 AM 42.8 °F 38.0 °F 39.2 °F 87% 30.23 in 5.0 mi South 8.1 mph - N/A   Overcast
12:15 PM 41.0 °F 35.2 °F 37.4 °F 87% 30.22 in 8.0 mi South 9.2 mph - N/A   Overcast
12:35 PM 41.0 °F 34.7 °F 39.2 °F 93% 30.22 in 7.0 mi South 10.4 mph - N/A   Overcast
12:55 PM 41.0 °F 35.8 °F 39.2 °F 93% 30.21 in 5.0 mi South 8.1 mph - 0.01 in   Overcast
1:15 PM 41.0 °F 35.8 °F 39.2 °F 93% 30.21 in 4.0 mi South 8.1 mph - N/A   Overcast
1:35 PM 41.0 °F 35.2 °F 37.4 °F 87% 30.21 in 5.0 mi South 9.2 mph - N/A   Overcast
1:55 PM 42.8 °F 37.5 °F 39.2 °F 87% 30.20 in 5.0 mi SSE 9.2 mph - 0.01 in   Overcast
2:15 PM 41.0 °F 37.1 °F 39.2 °F 93% 30.20 in 5.0 mi SSE 5.8 mph - N/A   Overcast
2:35 PM 42.8 °F 39.3 °F 39.2 °F 87% 30.20 in 5.0 mi South 5.8 mph - N/A   Overcast
2:55 PM 42.8 °F 40.1 °F 39.2 °F 87% 30.20 in 6.0 mi SSE 4.6 mph - N/A   Mostly Cloudy
3:15 PM 42.8 °F - 39.2 °F 87% 30.20 in 6.0 mi Calm Calm - N/A   Overcast
3:35 PM 41.0 °F 37.1 °F 39.2 °F 93% 30.18 in 6.0 mi ESE 5.8 mph - 0.01 in   Overcast
3:55 PM 42.8 °F 39.3 °F 39.2 °F 87% 30.17 in 5.0 mi ESE 5.8 mph - 0.01 in   Overcast
4:15 PM 41.0 °F 36.4 °F 37.4 °F 87% 30.17 in 6.0 mi ESE 6.9 mph - N/A   Overcast
4:35 PM 41.0 °F 39.0 °F 37.4 °F 87% 30.17 in 7.0 mi SSE 3.5 mph - N/A   Overcast
4:55 PM 42.8 °F 39.3 °F 37.4 °F 81% 30.17 in 7.0 mi ESE 5.8 mph - N/A   Overcast
5:15 PM 39.2 °F 35.9 °F 35.6 °F 87% 30.16 in 8.0 mi East 4.6 mph - N/A   Overcast
5:35 PM 41.0 °F 38.0 °F 37.4 °F 87% 30.14 in 7.0 mi NE 4.6 mph - N/A   Overcast
5:55 PM 41.0 °F 39.0 °F 37.4 °F 87% 30.13 in 8.0 mi NNE 3.5 mph - N/A   Overcast
6:15 PM 42.8 °F - 39.2 °F 87% 30.12 in 8.0 mi Calm Calm - N/A   Overcast
6:35 PM 41.0 °F 37.1 °F 39.2 °F 93% 30.12 in 7.0 mi ENE 5.8 mph - N/A   Overcast
6:55 PM 42.8 °F 40.1 °F 39.2 °F 87% 30.11 in 7.0 mi ENE 4.6 mph - N/A   Mostly Cloudy
7:15 PM 42.8 °F 40.1 °F 39.2 °F 87% 30.11 in 7.0 mi NE 4.6 mph - N/A   Overcast
7:35 PM 42.8 °F 39.3 °F 39.2 °F 87% 30.11 in 7.0 mi East 5.8 mph - N/A   Overcast
7:55 PM 39.2 °F 35.0 °F 37.4 °F 93% 30.11 in 5.0 mi East 5.8 mph - N/A   Overcast
8:15 PM 39.2 °F 32.5 °F 37.4 °F 93% 30.10 in 8.0 mi ENE 10.4 mph - N/A   Overcast
8:35 PM 37.4 °F 28.9 °F 37.4 °F 100% 30.11 in 7.0 mi ENE 13.8 mph - N/A   Overcast
8:55 PM 37.4 °F 28.2 °F 35.6 °F 93% 30.11 in 5.0 mi ENE 16.1 mph 23.0 mph N/A   Overcast
9:15 PM 37.4 °F 28.9 °F 35.6 °F 93% 30.11 in 5.0 mi ENE 13.8 mph 17.3 mph N/A   Overcast
9:35 PM 39.2 °F 32.0 °F 37.4 °F 93% 30.11 in 7.0 mi ENE 11.5 mph - N/A   Overcast
9:55 PM 37.4 °F 29.8 °F 35.6 °F 93% 30.11 in 7.0 mi ENE 11.5 mph - N/A   Overcast
10:15 PM 37.4 °F 30.3 °F 35.6 °F 93% 30.11 in 7.0 mi ENE 10.4 mph - N/A   Overcast
10:35 PM 37.4 °F 30.3 °F 35.6 °F 93% 30.10 in 7.0 mi ENE 10.4 mph - N/A   Overcast
10:55 PM 37.4 °F 31.4 °F 35.6 °F 93% 30.09 in 8.0 mi ENE 8.1 mph - N/A   Overcast
11:15 PM 37.4 °F 32.1 °F 35.6 °F 93% 30.09 in 10.0 mi ENE 6.9 mph - N/A   Overcast
11:35 PM 37.4 °F 32.1 °F 33.8 °F 87% 30.08 in 10.0 mi ENE 6.9 mph - N/A   Overcast
11:55 PM 37.4 °F 31.4 °F 33.8 °F 87% 30.07 in 10.0 mi ENE 8.1 mph - N/A   Mostly Cloudy